星链-36934(STARLINK-36934)

导读

STARLINK-36934(NORAD编号68279)是美国SpaceX公司星链(Starlink)卫星互联网星座的一颗低轨通信卫星,隶属于星链大规模组网的部署批次。该卫星运行在300-550公里的近地轨道,采用Ku/Ka频段提供通信服务,作为星链星座的组成部分,承担全球互联网覆盖任务,可为偏远地区、海洋、航空等传统网络覆盖盲区提供低延迟、高带宽的联网服务。它延续了星链卫星小型化设计思路,适配星座规模化部署需求,目前处于在轨运行状态,是SpaceX构建全球天基通信系统的组成单元之一。

基本信息
目录编号:
68279
目录名称:
STARLINK-36934
国际标识:
2026-055T
轨道中心:
EARTH
卫星名称:
星链-36934
卫星全名:
星链-36934(STARLINK-36934)
卫星状态:
在轨 (已飞行177 天)
发射日期:
2026-03-19 UTC
国别 :
美国 (US)
星等 :
--
该卫星已列入 空间交会检测服务 Space Conjunction Data Service (SCDS) ,当前飞行风险评估等级: 高风险
轨道信息
数据来源 国际轨道数据
星历时间: 2026-09-12T02:59:44+0800
7小时前
查看轨道信息
半长轴: 6840.808km
偏心率: 0.000143
轨道倾角: 53.157°
近地点辐角 101.494°
升交点赤经 170.611°
平近点角 258.623°
近地点: 461.692km
远地点: 463.65km
周期: 93.847分钟
每日圈数: 15.344109
详细信息
固有亮度:
5
最大亮度:
2.5
卫星平台:
Starlink V1.0
覆盖范围:
全球
运营商:
太空探索技术公司
运营商所在国:
美国
制造商(研发单位):
太空探索技术公司
制造商所在国:
美国
使用方式:
暂无
卫星简介
Starlink 计划是 SpaceX 推出的全球卫星互联网项目,通过发射低轨道卫星,为全球尤其是偏远地区提供高速、低延迟的互联网服务。自 2019 年起,Starlink 已部署数千颗卫星,旨在缩小全球数字鸿沟,推动互联网普及。该项目还为军事、航空等行业提供通信支持,带来广泛经济效益。
2D轨道图
3D轨道图
轨道高度分析图
轨道倾角分析图
轨道综合分析图
查看轨道综合分析图
交会数据列表
事件ID 空间交会对象 最接近时刻(TCA) 交会距离 交会风险概率(CRP) 交会风险指数(CRI) 操作
CDM_260911-221805-866206-827922
2026-09-11T
22:18:57+0000
0.604 km
远距离
1.273736E-4 高风险 0.77
CDM_260913-080005-399906-827922
2026-09-13T
08:00:28+0000
0.555 km
远距离
1.065946E-4 高风险 0.76
CDM_260913-211705-399906-827922
2026-09-13T
21:17:42+0000
0.593 km
远距离
8.913088E-5 中风险 0.74
CDM_260914-051905-977106-827921
2026-09-14T
05:19:31+0000
0.739 km
远距离
4.446106E-5 中风险 0.68
CDM_260913-093405-399906-827922
2026-09-13T
09:34:16+0000
1.972 km
极远距离
1.965076E-6 低风险 0.41
CDM_260913-225105-399906-827922
2026-09-13T
22:51:30+0000
2.110 km
极远距离
1.675894E-6 低风险 0.39
CDM_260912-204505-343306-827921
2026-09-12T
20:45:03+0000
2.608 km
极远距离
1.456338E-6 低风险 0.38
CDM_260914-034505-977106-827921
2026-09-14T
03:45:43+0000
2.236 km
极远距离
1.412591E-6 低风险 0.38
CDM_260912-073205-340106-827921
2026-09-12T
07:32:40+0000
2.950 km
极远距离
1.221714E-6 低风险 0.37
CDM_260913-062605-399906-827921
2026-09-13T
06:26:40+0000
2.577 km
极远距离
1.135868E-6 低风险 0.36
与全量物体交会距离演化趋势
与全量物体交会风险概率演化趋势